UAL2332 KSFO-KAUS

Flight info

Callsign UAL2332
Flight time N/A
Altitude 39000
Route WESLA5 KAYEX LOSHN BOILE Q4 DILLO LAIKS4
Aircraft A21N/M-SDE2E3FGHIRWXY/LB1

Departure

Time N/A
Airport San Francisco International Airport (KSFO)

Arrival

Time 2026-05-04 04:25
Airport Austin Bergstrom International Airport (KAUS)
Time Latitude Longitude Altitude Speed Heading
2026-05-04 03:13 32.59630 -108.73942 36882 ft 567 kts 102°
2026-05-04 03:13 32.58990 -108.69335 36897 ft 567 kts 102°
2026-05-04 03:14 32.57702 -108.60112 36892 ft 566 kts 102°
2026-05-04 03:14 32.56408 -108.50893 36943 ft 567 kts 102°
2026-05-04 03:15 32.55107 -108.41669 36991 ft 566 kts 102°
2026-05-04 03:15 32.53809 -108.32522 37049 ft 565 kts 102°
2026-05-04 03:16 32.52496 -108.23316 37086 ft 565 kts 102°
2026-05-04 03:16 32.51179 -108.14134 37081 ft 564 kts 102°
2026-05-04 03:17 32.49865 -108.05020 37048 ft 564 kts 102°
2026-05-04 03:17 32.48533 -107.95836 37006 ft 565 kts 102°
2026-05-04 03:18 32.47204 -107.86715 36953 ft 565 kts 102°
2026-05-04 03:18 32.45860 -107.77542 36906 ft 565 kts 102°
2026-05-04 03:19 32.44509 -107.68368 36896 ft 564 kts 102°
2026-05-04 03:19 32.43154 -107.59212 36896 ft 564 kts 102°
2026-05-04 03:20 32.41803 -107.50132 36895 ft 562 kts 102°
2026-05-04 03:20 32.40438 -107.41010 36892 ft 562 kts 102°
2026-05-04 03:21 32.39076 -107.31950 36901 ft 562 kts 102°
2026-05-04 03:21 32.37701 -107.22844 36893 ft 562 kts 102°
2026-05-04 03:22 32.36554 -107.15288 36889 ft 561 kts 102°
2026-05-04 03:22 32.35166 -107.06186 36897 ft 562 kts 102°
2026-05-04 03:23 32.33768 -106.97063 37076 ft 562 kts 102°
2026-05-04 03:23 32.32373 -106.88008 37063 ft 563 kts 102°
2026-05-04 03:23 32.31668 -106.83446 36899 ft 563 kts 102°
2026-05-04 03:24 32.30960 -106.78877 36895 ft 563 kts 102°
2026-05-04 03:24 32.29542 -106.69762 36917 ft 563 kts 102°
2026-05-04 03:25 32.28126 -106.60703 36915 ft 563 kts 102°
2026-05-04 03:25 32.26693 -106.51593 36891 ft 563 kts 102°
2026-05-04 03:26 32.25261 -106.42506 36913 ft 563 kts 102°
2026-05-04 03:26 32.23812 -106.33373 36935 ft 565 kts 102°
2026-05-04 03:27 32.22363 -106.24284 36923 ft 566 kts 102°
2026-05-04 03:27 32.20897 -106.15126 36922 ft 566 kts 102°
2026-05-04 03:28 32.19432 -106.06027 36926 ft 566 kts 102°
2026-05-04 03:28 32.17948 -105.96848 36928 ft 566 kts 101°
2026-05-04 03:29 32.16473 -105.87775 36935 ft 565 kts 101°
2026-05-04 03:29 32.14996 -105.78726 36920 ft 566 kts 101°
2026-05-04 03:30 32.13494 -105.69565 36943 ft 566 kts 101°
2026-05-04 03:30 32.11990 -105.60438 36928 ft 567 kts 101°
2026-05-04 03:31 32.10478 -105.51303 36923 ft 565 kts 101°
2026-05-04 03:31 32.08972 -105.42251 36919 ft 565 kts 101°
2026-05-04 03:32 32.07450 -105.33135 36918 ft 565 kts 101°
2026-05-04 03:32 32.05928 -105.24068 36920 ft 565 kts 102°
2026-05-04 03:33 32.04394 -105.14973 36930 ft 564 kts 102°
2026-05-04 03:33 32.02852 -105.05867 36927 ft 565 kts 102°
2026-05-04 03:34 32.01311 -104.96814 36929 ft 565 kts 102°
2026-05-04 03:34 31.99762 -104.87764 36903 ft 565 kts 102°
2026-05-04 03:35 31.98201 -104.78659 36927 ft 568 kts 101°
2026-05-04 03:35 31.96632 -104.69556 36927 ft 569 kts 102°
2026-05-04 03:36 31.95044 -104.60398 36936 ft 569 kts 102°
2026-05-04 03:36 31.93487 -104.51450 36934 ft 569 kts 102°
2026-05-04 03:37 31.91888 -104.42302 36930 ft 569 kts 102°
2026-05-04 03:37 31.90292 -104.33211 36935 ft 569 kts 102°
2026-05-04 03:38 31.88679 -104.24063 36934 ft 569 kts 102°
2026-05-04 03:38 31.87061 -104.14926 36941 ft 567 kts 102°
2026-05-04 03:39 31.85456 -104.05905 36930 ft 565 kts 102°
2026-05-04 03:39 31.83835 -103.96837 36903 ft 565 kts 102°
2026-05-04 03:40 31.82212 -103.87787 36928 ft 565 kts 102°
2026-05-04 03:40 31.80590 -103.78788 36927 ft 564 kts 102°
2026-05-04 03:41 31.78967 -103.69818 36928 ft 562 kts 102°
2026-05-04 03:41 31.77332 -103.60819 36928 ft 562 kts 102°
2026-05-04 03:42 31.75689 -103.51818 36924 ft 562 kts 102°
2026-05-04 03:42 31.74043 -103.42836 36932 ft 560 kts 103°
2026-05-04 03:43 31.72410 -103.33963 36938 ft 558 kts 103°
2026-05-04 03:43 31.70758 -103.25021 36938 ft 558 kts 103°
2026-05-04 03:44 31.69104 -103.16105 36937 ft 558 kts 103°
2026-05-04 03:44 31.67452 -103.07240 36937 ft 557 kts 104°
2026-05-04 03:45 31.65792 -102.98366 36946 ft 555 kts 103°
2026-05-04 03:45 31.64137 -102.89556 36952 ft 554 kts 103°
2026-05-04 03:46 31.62470 -102.80718 36946 ft 554 kts 103°
2026-05-04 03:46 31.60795 -102.71870 36961 ft 554 kts 103°
2026-05-04 03:47 31.59118 -102.63042 36958 ft 554 kts 103°
2026-05-04 03:47 31.57444 -102.54269 36961 ft 554 kts 103°
2026-05-04 03:48 31.55747 -102.45415 36966 ft 554 kts 104°
2026-05-04 03:48 31.54061 -102.36649 36973 ft 554 kts 103°
2026-05-04 03:49 31.52352 -102.27798 36976 ft 554 kts 104°
2026-05-04 03:49 31.50651 -102.19023 36972 ft 554 kts 104°
2026-05-04 03:50 31.48932 -102.10193 36983 ft 554 kts 103°
2026-05-04 03:50 31.47219 -102.01427 36989 ft 555 kts 103°
2026-05-04 03:51 31.45486 -101.92594 36989 ft 553 kts 103°
2026-05-04 03:51 31.43766 -101.83853 36997 ft 553 kts 103°
2026-05-04 03:52 31.42024 -101.75041 37002 ft 553 kts 103°
2026-05-04 03:52 31.40291 -101.66305 37003 ft 553 kts 103°
2026-05-04 03:53 31.38553 -101.57583 37009 ft 551 kts 103°
2026-05-04 03:53 31.36816 -101.48891 37002 ft 550 kts 103°
2026-05-04 03:54 31.35061 -101.40147 37010 ft 550 kts 103°
2026-05-04 03:54 31.33310 -101.31449 37017 ft 550 kts 103°
2026-05-04 03:55 31.31547 -101.22730 37069 ft 550 kts 103°
2026-05-04 03:55 31.29790 -101.14076 37182 ft 550 kts 103°
2026-05-04 03:56 31.28018 -101.05371 37278 ft 550 kts 103°
2026-05-04 03:56 31.26233 -100.96641 36722 ft 549 kts 103°
2026-05-04 03:56 31.25348 -100.92321 36242 ft 543 kts 103°
2026-05-04 03:57 31.24482 -100.88101 35793 ft 537 kts 104°
2026-05-04 03:57 31.23614 -100.83879 35339 ft 531 kts 104°
2026-05-04 03:57 31.22753 -100.79699 34878 ft 526 kts 104°
2026-05-04 03:57 31.21898 -100.75557 34436 ft 521 kts 104°
2026-05-04 03:58 31.20205 -100.67379 33320 ft 515 kts 105°
2026-05-04 03:58 31.19362 -100.63319 32653 ft 514 kts 105°
2026-05-04 03:58 31.18525 -100.59303 31981 ft 514 kts 105°
2026-05-04 03:59 31.17678 -100.55239 31314 ft 514 kts 105°
2026-05-04 03:59 31.16830 -100.51185 30616 ft 515 kts 105°
2026-05-04 03:59 31.15975 -100.47101 29985 ft 513 kts 105°
2026-05-04 03:59 31.15138 -100.43109 29386 ft 509 kts 105°
2026-05-04 04:00 31.14298 -100.39105 28786 ft 505 kts 105°
2026-05-04 04:00 31.13463 -100.35135 28230 ft 501 kts 105°
2026-05-04 04:00 31.12636 -100.31202 27672 ft 496 kts 104°
2026-05-04 04:00 31.11814 -100.27301 27157 ft 491 kts 104°
2026-05-04 04:01 31.11000 -100.23442 26613 ft 487 kts 104°
2026-05-04 04:01 31.10191 -100.19612 26093 ft 484 kts 104°
2026-05-04 04:01 31.09396 -100.15857 25567 ft 481 kts 104°
2026-05-04 04:01 31.08596 -100.12085 25070 ft 477 kts 104°
2026-05-04 04:02 31.07803 -100.08346 24593 ft 473 kts 104°
2026-05-04 04:02 31.07015 -100.04640 24205 ft 468 kts 103°
2026-05-04 04:02 31.06232 -100.00960 24044 ft 468 kts 103°
2026-05-04 04:02 31.05446 -99.97274 24026 ft 469 kts 103°
2026-05-04 04:03 31.04655 -99.93568 24025 ft 469 kts 103°
2026-05-04 04:03 31.03865 -99.89873 24029 ft 469 kts 103°
2026-05-04 04:03 31.03084 -99.86230 24031 ft 469 kts 103°
2026-05-04 04:03 31.02293 -99.82541 24039 ft 468 kts 104°
2026-05-04 04:04 31.01502 -99.78858 24029 ft 466 kts 104°
2026-05-04 04:04 31.00713 -99.75191 24029 ft 465 kts 104°
2026-05-04 04:04 30.99925 -99.71530 24029 ft 465 kts 104°
2026-05-04 04:04 30.99135 -99.67871 24031 ft 465 kts 104°
2026-05-04 04:05 30.98352 -99.64249 24031 ft 465 kts 104°
2026-05-04 04:05 30.97561 -99.60595 24031 ft 465 kts 104°
2026-05-04 04:05 30.96767 -99.56930 24031 ft 465 kts 104°
2026-05-04 04:05 30.95972 -99.53268 24041 ft 465 kts 104°
2026-05-04 04:06 30.95177 -99.49609 24037 ft 465 kts 104°
2026-05-04 04:06 30.94389 -99.45987 24050 ft 465 kts 104°
2026-05-04 04:06 30.93591 -99.42326 24043 ft 465 kts 104°
2026-05-04 04:06 30.92792 -99.38666 24046 ft 465 kts 104°
2026-05-04 04:07 30.91993 -99.35010 24048 ft 465 kts 104°
2026-05-04 04:07 30.91194 -99.31361 24047 ft 465 kts 104°
2026-05-04 04:07 30.90392 -99.27705 24041 ft 465 kts 104°
2026-05-04 04:07 30.89591 -99.24059 24046 ft 465 kts 104°
2026-05-04 04:08 30.89059 -99.21638 24058 ft 465 kts 104°
2026-05-04 04:08 30.88255 -99.17988 24059 ft 465 kts 104°
2026-05-04 04:08 30.87451 -99.14338 24056 ft 465 kts 104°
2026-05-04 04:08 30.86644 -99.10683 24056 ft 465 kts 104°
2026-05-04 04:09 30.85847 -99.07074 24057 ft 465 kts 104°
2026-05-04 04:09 30.85041 -99.03434 24064 ft 464 kts 104°
2026-05-04 04:09 30.84236 -98.99802 24079 ft 464 kts 104°
2026-05-04 04:09 30.83428 -98.96163 24078 ft 464 kts 104°
2026-05-04 04:10 30.82621 -98.92531 24094 ft 464 kts 104°
2026-05-04 04:10 30.81810 -98.88887 24098 ft 464 kts 104°
2026-05-04 04:10 30.80997 -98.85244 24108 ft 464 kts 104°
2026-05-04 04:10 30.80186 -98.81608 24108 ft 464 kts 104°
2026-05-04 04:11 30.79501 -98.77992 24115 ft 463 kts 98°
2026-05-04 04:11 30.79057 -98.74274 24123 ft 463 kts 96°
2026-05-04 04:11 30.78673 -98.70558 24118 ft 463 kts 95°
2026-05-04 04:11 30.78295 -98.66834 24122 ft 464 kts 95°
2026-05-04 04:12 30.77912 -98.63092 24078 ft 463 kts 95°
2026-05-04 04:12 30.77527 -98.59383 23566 ft 461 kts 95°
2026-05-04 04:12 30.77143 -98.55694 23021 ft 457 kts 95°
2026-05-04 04:12 30.76762 -98.52050 22527 ft 451 kts 96°
2026-05-04 04:13 30.76383 -98.48448 22024 ft 446 kts 96°
2026-05-04 04:13 30.76001 -98.44929 21531 ft 441 kts 98°
2026-05-04 04:13 30.75170 -98.41523 21033 ft 436 kts 113°
2026-05-04 04:13 30.73977 -98.38316 20298 ft 428 kts 116°
2026-05-04 04:14 30.72733 -98.35200 19524 ft 421 kts 117°
2026-05-04 04:14 30.71508 -98.32147 18868 ft 411 kts 116°
2026-05-04 04:14 30.70314 -98.29159 18123 ft 402 kts 116°
2026-05-04 04:14 30.69145 -98.26226 17189 ft 397 kts 116°
2026-05-04 04:15 30.68003 -98.23351 16247 ft 395 kts 116°
2026-05-04 04:15 30.66862 -98.20472 15434 ft 389 kts 116°
2026-05-04 04:15 30.65751 -98.17668 15075 ft 375 kts 116°
2026-05-04 04:15 30.64677 -98.14959 14878 ft 362 kts 116°
2026-05-04 04:16 30.63641 -98.12345 14665 ft 351 kts 116°
2026-05-04 04:16 30.62628 -98.09789 14299 ft 346 kts 116°
2026-05-04 04:16 30.61637 -98.07291 13931 ft 342 kts 116°
2026-05-04 04:16 30.60642 -98.04785 13490 ft 340 kts 116°
2026-05-04 04:17 30.59655 -98.02300 13044 ft 337 kts 116°
2026-05-04 04:17 30.58674 -97.99834 12591 ft 335 kts 116°
2026-05-04 04:17 30.57711 -97.97416 12170 ft 332 kts 116°
2026-05-04 04:17 30.56744 -97.94989 11789 ft 328 kts 117°
2026-05-04 04:18 30.55600 -97.92726 11398 ft 322 kts 129°
2026-05-04 04:18 30.54199 -97.90700 10968 ft 320 kts 133°
2026-05-04 04:18 30.52773 -97.88767 10554 ft 317 kts 134°
2026-05-04 04:18 30.51341 -97.86839 10166 ft 314 kts 134°
2026-05-04 04:19 30.49921 -97.84919 9717 ft 312 kts 134°
2026-05-04 04:19 30.48518 -97.83017 9296 ft 308 kts 134°
2026-05-04 04:19 30.47143 -97.81147 9000 ft 298 kts 134°
2026-05-04 04:19 30.45825 -97.79351 8658 ft 288 kts 134°
2026-05-04 04:20 30.44539 -97.77600 8236 ft 282 kts 134°
2026-05-04 04:20 30.43273 -97.75902 7822 ft 274 kts 138°
2026-05-04 04:20 30.41848 -97.74590 7563 ft 256 kts 151°
2026-05-04 04:20 30.40394 -97.73528 7350 ft 238 kts 153°
2026-05-04 04:21 30.39012 -97.72565 6992 ft 225 kts 154°
2026-05-04 04:21 30.37620 -97.71640 6054 ft 239 kts 155°
2026-05-04 04:21 30.36110 -97.70696 5018 ft 250 kts 156°
2026-05-04 04:21 30.34718 -97.69855 5395 ft 192 kts 158°
2026-05-04 04:22 30.33623 -97.69195 5083 ft 185 kts 159°
2026-05-04 04:22 30.32386 -97.68684 4396 ft 184 kts 170°
2026-05-04 04:22 30.31139 -97.68394 3598 ft 188 kts 173°
2026-05-04 04:22 30.29838 -97.68303 3018 ft 183 kts 182°
2026-05-04 04:23 30.28622 -97.68286 2564 ft 171 kts 178°
2026-05-04 04:23 30.27409 -97.68234 1941 ft 171 kts 180°
2026-05-04 04:23 30.26305 -97.68183 1713 ft 152 kts 180°
2026-05-04 04:23 30.25290 -97.68135 1433 ft 139 kts 178°
2026-05-04 04:24 30.24544 -97.68115 1163 ft 133 kts 181°
2026-05-04 04:24 30.23539 -97.68058 987 ft 156 kts 178°
2026-05-04 04:24 30.22408 -97.67986 807 ft 161 kts 177°
2026-05-04 04:24 30.21319 -97.67939 569 ft 150 kts 179°
2026-05-04 04:25 30.20342 -97.67917 521 ft 131 kts 180°
2026-05-04 04:25 30.19641 -97.67894 506 ft 62 kts 178°
2026-05-04 04:25 30.19407 -97.67757 505 ft 26 kts 110°
2026-05-04 04:25 30.19398 -97.67565 507 ft 22 kts 88°
2026-05-04 04:26 30.19400 -97.67417 508 ft 14 kts 88°
2026-05-04 04:26 30.19421 -97.67346 507 ft 5 kts 26°
2026-05-04 04:26 30.19554 -97.67324 508 ft 25 kts 359°
2026-05-04 04:26 30.19686 -97.67326 508 ft 14 kts 359°
2026-05-04 04:27 30.19787 -97.67327 508 ft 14 kts 359°
2026-05-04 04:27 30.19864 -97.67313 509 ft 6 kts 50°
2026-05-04 04:27 30.19882 -97.67266 510 ft 14 kts 75°
2026-05-04 04:27 30.19899 -97.67056 512 ft 23 kts 88°
2026-05-04 04:28 30.20016 -97.67021 513 ft 32 kts 320°
2026-05-04 04:28 30.20134 -97.67060 517 ft 11 kts 18°
2026-05-04 04:28 30.20163 -97.67048 517 ft 0 kts 20°